Flag for Germany Weather past 2 weeks in Bielefeld, North Rhine-Westphalia, Germany

Now
44 °F

Clear.


Feels Like: 44 °F
Forecast: 40 / 49 °F
Wind: 2 mph from Southeast

Location: Bad Lippspringe


UV Index: 0 (Low)

Visibility: 25 mi


Pressure: 30.37 "Hg

Humidity: 56%

Dew point: 29 °F

Location of BielefeldLocation

Historic Weather in Bielefeld

°F

Bielefeld temperature yesterday

Maximum temperature yesterday: 57 °F (at 6:00 PM)
Minimum temperature yesterday: 28 °F (at 7:00 AM)
Average temperature yesterday: 43 °F

Past Weeks' High & Low Weather Summary

 TemperatureHumidityPressure
High72 °F (Apr 3, 3:00 PM)99% (Apr 6, 8:00 AM)30.47 "Hg (Apr 6, 8:00 AM)
Low28 °F (Apr 16, 7:00 AM)30% (Apr 3, 5:00 PM)29.62 "Hg (Apr 3, 5:00 PM)
Average51 °F75%30.02 "Hg
* Reported Apr 2 2:00 AM — Apr 17 2:00 AM, Bielefeld, Weather by CustomWeather, © 2014

Note: Actual official high and low records may vary slightly from our data, if they occured in-between our weather recording intervals... More about our weather records

Advertising

Historic Weather Conditions — Data for Previous 24 hours

 ConditionsComfort  
Time TempWeatherWind HumidityBarometerVisibility
2:00 AM
Apr 17
44 °FClear.2 mph56%30.37 "Hg25 mi
1:00 AM45 °FClear.3 mph56%30.37 "Hg31 mi
12:00 AM46 °FClear.3 mph58%30.37 "Hg28 mi
11:00 PM
Apr 16
38 °FClear.2 mph85%30.39 "Hg31 mi
10:00 PM44 °FClear.3 mph66%30.38 "Hg37 mi
9:00 PM46 °FClear.3 mph62%30.39 "Hg37 mi
8:00 PM52 °FPassing clouds.2 mph51%30.38 "Hg25 mi
7:00 PM55 °FSunny.2 mph44%30.38 "Hg40 mi
6:00 PM57 °FPartly sunny.1 mph42%30.38 "Hg43 mi
5:00 PM56 °FOvercast.3 mph41%30.40 "Hg31 mi
4:00 PM54 °FScattered clouds.1 mph41%30.41 "Hg34 mi
3:00 PM53 °FScattered clouds.3 mph44%30.42 "Hg34 mi
2:00 PM54 °FScattered clouds.3 mph48%30.43 "Hg28 mi
1:00 PM52 °FPassing clouds.3 mph48%30.44 "Hg25 mi
12:00 PM51 °FSunny.3 mph52%30.46 "Hg17 mi
11:00 AM49 °FPassing clouds.1 mph58%30.47 "Hg17 mi
10:00 AM44 °FPassing clouds.1 mph72%30.47 "Hg8 mi
9:00 AM39 °FSunny.1 mph83%30.46 "Hg6 mi
8:00 AM32 °FFog.1 mph95%30.47 "Hg2 mi
7:00 AM28 °FFog.No wind97%30.46 "Hg2 mi
6:00 AM28 °FFog.1 mph96%30.45 "Hg3 mi
5:00 AM29 °FFog.1 mph96%30.44 "Hg4 mi
4:00 AM29 °FFog.1 mph96%30.43 "Hg4 mi
3:00 AM30 °FPassing clouds.1 mph95%30.42 "Hg8 mi
Weather by CustomWeather, © 2014

See weather overview